Location: Friendship Estates
(38.3668°N, 75.2238°W)
Time: 13:46:35
(UTC+00:00)

Daily predictions for brighter satellites

Satellite Brightness Start Highest point End
(mag) Time Altitude Azimuth Time Altitude Azimuth Time Altitude Azimuth
Cosmos 1763 Rocket 3.5 21:59:55 10° SSW 22:04:58 85° ESE 22:10:05 10° NNE
USA 276 3.0 22:02:20 10° NW 22:05:09 30° NNE 22:07:58 10° E
Cosmos 2034 Rocket 4.0 22:01:15 10° S 22:07:25 88° E 22:13:36 10° N
Meteor PRIRODA 3.6 22:04:55 10° SSE 22:08:33 89° WSW 22:12:12 10° NNW
Cosmos 1697 Rocket 3.1 22:04:30 10° N 22:09:45 39° ENE 22:14:58 10° SE
Cosmos 841 Rocket 4.0 22:05:56 10° S 22:10:42 39° ESE 22:15:29 10° NE
Cosmos 1980 Rocket 3.3 22:09:06 10° N 22:13:29 22° NE 22:17:49 10° ESE
Cosmos 1602 4.3 22:14:01 10° N 22:17:37 36° E 22:21:12 10° SSE
Cosmos 1408 Rocket 4.2 22:13:39 10° NNW 22:17:57 61° W 22:22:16 10° S
Cosmos 1937 Rocket 4.0 22:13:12 10° N 22:18:07 37° ENE 22:23:00 10° SE
Cosmos 1782 3.3 22:16:25 10° SSE 22:20:09 40° E 22:23:54 10° NNE
Okean O Rocket 3.1 22:17:44 10° ESE 22:20:32 17° ENE 22:23:21 10° NNE
Meteor 1-25 Rocket 4.2 22:15:18 10° N 22:20:49 60° ENE 22:26:21 10° SSE
NOAA 6 4.0 22:16:20 10° SSE 22:21:26 67° ENE 22:26:32 10° N
Cosmos 2082 Rocket 2.5 22:18:07 10° S 22:23:30 46° ESE 22:28:54 10° NE
Cosmos 1151 Rocket 4.1 22:20:32 10° SE 22:23:59 24° E 22:27:29 10° NE
Cosmos 1743 Rocket 3.5 22:21:32 10° N 22:25:53 83° E 22:30:11 10° S
Cosmos 990 Rocket 3.9 22:21:12 10° NNW 22:26:24 85° ENE 22:31:33 10° SSE
USA 267 4.2 22:21:39 10° NE 22:27:40 41° NNW 22:33:41 10° W
ISS -1.6 22:26:05 10° NNW 22:27:49 13° NNE 22:29:10 11° NE
Cosmos 1634 Rocket 4.1 22:22:41 10° S 22:28:52 60° E 22:35:06 10° NNE
CORIOLIS 4.1 22:23:49 10° SSE 22:29:09 70° ENE 22:34:34 10° N
CZ-4B DEB 4.2 22:25:01 10° SSE 22:30:27 61° ENE 22:35:52 10° N
CZ-2D R/B 3.5 22:31:30 10° SSE 22:35:10 45° ENE 22:38:50 10° N
Cosmos 1340 Rocket 3.6 22:31:15 10° NNW 22:35:15 56° W 22:39:14 10° S
Cosmos 1666 Rocket 4.4 22:33:26 10° NNE 22:37:14 27° ENE 22:40:59 10° SE
Cosmos 2026 Rocket 3.9 22:34:24 10° N 22:40:30 66° E 22:46:30 10° SSE
COSMOS 2406 3.5 22:36:04 10° SSW 22:41:48 72° WNW 22:47:33 10° NNE
MOS 1-B Rocket 4.2 22:36:17 10° NNE 22:42:16 64° ESE 22:49:08 10° S
CZ-2C R/B 3.4 22:40:20 10° SSW 22:42:58 16° SSE 22:45:28 10° ESE
Cosmos 2195 Rocket 4.4 22:37:36 10° N 22:43:48 84° E 22:50:02 10° S
USA 229 DEB 3.9 22:37:40 10° NNW 22:45:09 79° ENE 22:53:02 10° SE
USA 229 3.9 22:37:46 10° NNW 22:45:15 79° ENE 22:53:07 10° SE
ARGOS 3.7 22:41:11 10° SE 22:46:02 35° ENE 22:50:54 10° N
COSMOS 2455 2.9 22:40:54 10° SSW 22:46:54 89° WNW 22:52:59 10° NNE
Cosmos 1833 Rocket 3.6 22:41:53 10° SW 22:47:18 49° WNW 22:52:46 10° NNE
Cosmos 858 Rocket 4.4 22:44:57 10° NNW 22:50:13 66° ENE 22:55:26 10° SSE
ATLAS CENTAUR R/B 4.1 22:39:48 10° WSW 22:50:28 45° NW 22:54:53 11° NNE
SKYMED 2 3.7 22:46:16 10° NNE 22:50:31 50° E 22:54:43 10° S
Cosmos 1500 3.1 22:47:18 10° N 22:51:00 60° E 22:54:40 10° SSE
Meteor 2-14 Rocket 4.3 22:45:07 10° N 22:51:14 74° E 22:57:17 10° SSE
Landsat 5 4.0 22:50:05 16° NE 22:52:48 35° E 22:56:27 10° SSE
PAYLOAD B 4.2 22:52:26 10° SSE 22:58:02 83° ENE 23:03:40 10° NNW
USA 234 3.2 22:52:10 10° SE 22:58:42 79° NE 23:05:15 10° NW
Cosmos 1570 Rocket 4.0 22:53:58 10° S 22:59:06 58° ESE 23:03:29 14° NNE
SMAP 4.2 22:55:11 10° S 22:59:39 47° W 23:04:09 10° NNW
Cosmos 540 Rocket 4.3 22:56:19 10° SW 23:01:15 50° WNW 23:06:14 10° N
PSLV R/B 4.0 22:57:38 10° S 23:01:16 68° WSW 23:04:58 10° NNW
CZ-4B R/B 3.1 22:58:40 10° SSE 23:04:03 64° ENE 23:09:22 10° N
Cosmos 1814 Rocket 3.9 23:00:57 10° SSW 23:06:12 79° ESE 23:10:55 13° NNE
Sich 1 3.2 23:01:57 10° NNW 23:06:14 72° W 23:10:31 10° S
Cosmos 1805 Rocket 4.3 23:02:01 10° NNW 23:06:15 54° W 23:10:27 10° S
NOSS 3-1 (A) 4.5 23:00:57 10° NW 23:08:49 72° WSW 23:17:45 10° SSE
Meteor 2-8 Rocket 4.4 23:05:01 10° S 23:11:01 60° E 23:17:04 10° NNE
GPS 2-04 Rocket1 3.2 23:07:09 10° W 23:11:12 56° S 23:12:59 30° ESE
CZ-2C R/B 2.5 23:06:08 10° NNE 23:11:20 85° ESE 23:16:30 10° SSW
Meteor 2-21 Rocket 4.3 23:07:10 10° N 23:13:17 82° E 23:19:20 10° S
Cosmos 1900 4.3 23:08:35 10° SSW 23:13:22 63° ESE 23:15:36 31° NE
deb Chang Zheng 4 3.4 23:12:05 10° SSE 23:16:22 78° ENE 23:20:41 10° N
CZ-4C R/B 3.3 23:18:27 44° SE 23:18:27 44° SE 23:21:09 10° S
Cosmos 1515 Rocket 4.1 23:15:59 10° SSE 23:19:38 37° ESE 23:19:38 37° ESE
Cosmos 1666 2.4 23:16:54 10° N 23:20:37 76° E 23:24:18 10° S
Feng Yun 1-1 Rocket 4.5 23:19:25 10° SE 23:25:08 52° ENE 23:30:50 10° N
YAOGAN 3 4.4 23:22:22 10° SSE 23:26:44 86° ENE 23:31:06 10° NNW
CZ-4C R/B 3.1 23:22:43 10° NNW 23:30:04 58° NE 23:36:22 19° SE
Cosmos 2208 Rocket 4.0 23:26:42 10° SSW 23:32:04 88° WNW 23:35:28 24° NNE
Cosmos 1812 4.0 23:29:32 10° SSW 23:33:09 39° W 23:36:48 10° N
H-2A R/B 3.0 23:29:03 10° S 23:34:05 48° W 23:39:00 10° NNW
SJ-11-01 4.4 23:30:01 10° S 23:34:45 78° WSW 23:39:31 10° NNW
X-37B 3.1 23:34:46 10° SSW 23:35:19 13° SSW 23:35:19 13° SSW
APEX 4.1 23:33:43 10° S 23:36:46 37° SSE 23:36:46 37° SSE
COSMO-SKYMED 1 3.6 23:34:24 10° N 23:38:31 44° WNW 23:42:38 10° SW
USA 276 3.9 23:38:25 10° WNW 23:41:08 27° SW 23:41:30 27° SSW
USA 32 4.3 23:41:02 10° SSE 23:45:09 49° SE 23:45:09 49° SE
Spot 2 4.4 23:41:20 10° SSE 23:46:23 67° ENE 23:51:29 10° N
Cosmos 921 Rocket 2.9 23:43:28 10° SSW 23:47:24 78° SW 23:47:24 78° SW
DMSP B5D1-3 4.4 23:49:22 70° E 23:49:26 70° ESE 23:54:31 10° S
Cosmos 1633 Rocket 3.8 23:45:44 10° NNW 23:50:00 53° W 23:54:15 10° S
Cosmos 2322 Rocket 4.2 23:46:23 10° N 23:47:28 15° N 23:47:28 15° N
